Tracking 29528 objects as of 13-Sep-2024
HD Live streaming from Space Station
objects crossing your sky now

STARLINK-30373

Track STARLINK-30373 now!
10-day predictions
STARLINK-30373 is classified as:


NORAD ID: 57790
Int'l Code: 2023-134V
Perigee: 565.5 km
Apogee: 566.9 km
Inclination: 43.0 °
Period: 95.8 minutes
Semi major axis: 6937 km
RCS: Unknown
Launch date: September 4, 2023
Source: United States (US)
Launch site: AIR FORCE EASTERN TEST RANGE (AFETR)
Your satellite tracking list
Your tracking list is empty




NASA's NSSDC Master Catalog

Two Line Element Set (TLE):
1 57790U 23134V   24256.71705078  .00002025  00000-0  16491-3 0  9998
2 57790  43.0028 267.8844 0000982 263.1592  96.9139 15.02539156 57795
Source of the keplerian elements: AFSPC